Valdez, AK

11:37 PM AKST on November 27, 2014 (GMT -0900)
Valdez | Change Station
CLOSE
Current Station
Airport
Location: Valdez Airport,
Elevation: 121 ft
Nearby Weather Stations

Elev 121 ft 61.13 °N, 146.25 °W | Updated 1 minute ago

Clear
Clear
16 °F
Feels Like 16 °F
N
0
Wind Variable Wind from North
Gusts 17 mph

Today
High -- | Low -- °F
--% Chance of Precip.
Yesterday
High -- | Low -- °F
Precip. -- in
9:21 AM 3:43 PM
Waxing Crescent, 38% visible
Pressure 30.26 in
Visibility 10.0 miles
Clouds
Dew Point 5 °F
Humidity 62%
Rainfall 0.00 in
Snow Depth Not available.
UV Not available.
Pollen Not available.
Air Quality Not available.
Flu Activity Not available.
METAR PAVD 280836Z 00000KT 10SM M09/M15 A3026 RMK AO1

More Conditions Fewer Conditions

Pressure 30.26 in
Visibility 10.0 miles
Clouds
Dew Point 5 °F
Humidity 62%
Rainfall 0.00 in
Snow Depth Not available.
UV Not available.
Pollen Not available.
Air Quality Not available.
Flu Activity Not available.
METAR PAVD 280836Z 00000KT 10SM M09/M15 A3026 RMK AO1

More Conditions Fewer Conditions

10-Day Weather Forecast

Almanac

Astronomy

Nov. 27, 2014 Rise Set
Actual Time
Civil Twilight
Nautical Twilight
Astronomical Twilight
Moon
Length of Visible Light
Length of Day
Tomorrow will be .
, % of the Moon is Illuminated

Today's Extremes

State Highs State Lows

Community

WunderPhotos

Upload Photos

1,774,191 photos uploaded!

WunderBlogs® & News

Nearby

Air Quality

  Air Quality AQ Index Pollutant
Not available.

Snow Depth

Station Depth Elevation

Earthquake Activity

City Distance Mag. Time & Date
Minimum magnitude displayed is 2.5.

Coastal Water Temperatures

Place Temperature

Nearby Weather Stations